Regional Weather Roundup
Issued by NWS Cleveland, OH

Home | Current Version | Previous Version | Graphics & Text | Print | Product List | Glossary On
Versions: 1 2 3 4 5 6 7 8 9 10 11 12 13 14 15 16 17 18 19 20 21 22 23 24 25 26 27 28 29 30 31 32 33 34 35 36 37 38 39 40 41 42 43 44 45 46 47 48 49 50
000
ASUS41 KCLE 182300
RWRCLE
OHIO REGIONAL WEATHER ROUNDUP
NATIONAL WEATHER SERVICE WILMINGTON, OH
600 PM EST SUN FEB 18 2018

NOTE: "FAIR" INDICATES FEW OR NO CLOUDS BELOW 12,000 FEET WITH NO
SIGNIFICANT WEATHER AND/OR OBSTRUCTIONS TO VISIBILITY.

OHZ001>008-015>018-024>027-034-035-043-044-190000-
   NORTHWEST OHIO

CITY           SKY/WX    TMP DP  RH WIND       PRES   REMARKS
DEFIANCE       FAIR      37  30  75 E5        30.21F
FINDLAY        FAIR      40  28  62 SE9       30.22F
TOLEDO EXPRESS FAIR      37  31  78 VRB5      30.22F
TOLEDO EXEC    FAIR      37  29  72 SE9       30.24F
LIMA           FAIR      39  32  76 SE8       30.21F
$$

OHZ009>014-019>023-028>033-038-089-190000-
   NORTHEAST OHIO

CITY           SKY/WX    TMP DP  RH WIND       PRES   REMARKS
CLE-HOPKINS    MOCLDY    40  27  59 SE6       30.32F
CLE-LAKEFRONT  FAIR      32  27  81 NE9       30.30F WCI  24
CUY CO. ARPT   PTCLDY    34  27  75 NE6       30.32F WCI  29
LORAIN-ELYRIA  FAIR      38  25  59 S7        30.28F
ASHTABULA      FAIR      37  26  64 S7        30.33F
AKRON-CANTON   MOCLDY    38  26  62 SE10      30.30S
WOOSTER        NOT AVBL
MANSFIELD      FAIR      38  27  64 SE9       30.26F
YOUNGSTOWN     MOCLDY    39  25  57 S8        30.32S
$$

OHZ042-051>053-060>062-070>072-077>081-190000-
  SOUTHWEST OHIO

CITY           SKY/WX    TMP DP  RH WIND       PRES   REMARKS
CINC-COVINGTON CLOUDY    45  34  65 SE9       30.19F
CINC-LUNKEN    FAIR      46  32  58 SE5       30.22F
HAMILTON       FAIR      47  33  58 SE6       30.21F
DAYTON         NOT AVBL
WRIGHT-PAT AFB FAIR      43  29  57 E8        30.22F
DAYTON GENERAL FAIR      44  31  60 SE9       30.20F
WILMINGTON     FAIR      42  33  70 E7        30.21F
$$

OHZ036-037-039>041-045>050-054>059-063>069-073>076-082>088-190000-
  CENTRAL AND SOUTHEAST OHIO

CITY           SKY/WX    TMP DP  RH WIND       PRES   REMARKS
COLUMBUS       MOCLDY    42  30  62 E9        30.26F
OSU AIRPORT    FAIR      40  31  70 SE9       30.25F
BOLTON FIELD   CLEAR     41  30  65 SE7       30.25F
RICKENBACK AFB NOT AVBL
NEWARK         FAIR      41  28  60 E8        30.27F
MARION         FAIR      38  28  67 S10       30.26F
LANCASTER      FAIR      40  29  64 E9        30.27F
ZANESVILLE     FAIR      39  28  64 SE6       30.30S
NEW PHILLY     FAIR      39  26  59 E9        30.32F
$$




USA.gov is the U.S. government's official web portal to all federal, state and local government web resources and services.